x

Cape Elizabeth- 45nm Nw Of Aberdeen, Wa (46041) Wave Buoy

1:50 - Tue 24th May 2016 All times are PDT. -7 hours from GMT.

  • Sig Wave height 5.6ft
  • Swell Direction
  • Peak Period 9s
  • Average Period 6s
  • Wind
    11mph
  • Sea Temp 57°f
  • Aire Temp 55°f
  • Sea Pressure 1017.1mb
  • Cape Elizabeth- 45nm Nw Of Aberdeen, Wa
  • Cape Elizabeth- 45nm Nw Of Aberdeen, Wa

More Historic Weather Station data

Upgrade to MSW Pro to gain access to the past 30 days of data for over 8000 Wavebouys and Weather Stations around the globe.

Join Pro

Comparision Forecast

View Surf forecast
   
mar 05/24 1:50 5.5ft 9s 6s 11
mph
1017.1mb 57f 55f
12:50 5.5ft 10s 7s 4 7 mph 1016.9mb 57f 55f
11:50 6ft 9s 7s 9 11 mph 1016.6mb 57f 55f
10:50 6ft 10s 7s 11 13 mph 1016.5mb 56f 54f
9:50 6ft 9s 7s 13 16 mph 1016.2mb 56f 53f
8:50 6.5ft 9s 7s 9 11 mph 1015.9mb 56f 55f
7:50 6ft 10s 6s 11 16 mph 1015.5mb 56f 55f
6:50 6ft 9s 7s 13 16 mph 1015mb 56f 55f
5:50 6.5ft 10s 7s 11 16 mph 1014.8mb 56f 55f
4:50 6ft 9s 7s 11 13 mph 1014.8mb 56f 55f
3:50 6.5ft 9s 7s 9 11 mph 1014.8mb 56f 55f
2:50 6ft 9s 7s 11 13 mph 1014.7mb 56f 55f
1:50 6ft 9s 7s 9 13 mph 1014.8mb 56f 55f
12:50 5.5ft 9s 7s 11 13 mph 1014.8mb 56f 55f
lun 05/23 11:50 7ft 9s 8s 9 11 mph 1014.7mb 56f 55f
10:50 6ft 10s 7s 11 13 mph 1014.5mb 56f 55f
9:50 6.5ft 10s 7s 13 16 mph 1014.4mb 56f 55f
8:50 6.5ft 9s 8s 11 13 mph 1014.1mb 56f 56f
7:50 6ft 9s 7s 11 13 mph 1013.8mb 57f 56f
6:50 6ft 10s 7s 11 16 mph 1013.8mb 57f 57f
5:50 7ft 10s 7s 11 13 mph 1013.8mb 58f 57f
4:50 6ft 9s 7s 9
mph
1014mb 58f 56f
3:50 6ft 9s 7s 4 7 mph 1014.2mb 58f 56f
2:50 6ft 9s 7s 7
mph
1014.2mb 57f 56f
1:50 7ft 9s 7s 7 9 mph 1014.2mb 57f 56f
12:50 6ft 9s 7s 9
mph
1014.1mb 57f 55f
11:50 6ft 9s 7s 7 9 mph 1013.9mb 56f 55f
10:50 6ft 8s 7s 9 11 mph 1013.8mb 56f 55f
9:50 6ft 9s 7s 11 13 mph 1013.8mb 56f 54f
8:50 5.5ft 9s 7s 11 13 mph 1013.6mb 56f 54f
7:50 5ft 9s 7s 11 13 mph 1013.4mb 56f 53f
6:50 4.5ft 8s 6s 9 11 mph 1013.1mb 56f 54f
5:50 4.5ft 8s 6s 13 16 mph 1012.8mb 56f 54f
4:50 4ft 8s 6s 11 13 mph 1012.7mb 56f 55f
3:50 4ft 9s  -  9 11 mph 1012.9mb 56f 55f
2:50 4ft 7s 6s 11 13 mph 1012.8mb 56f 55f
1:50 4ft 7s 6s 9 11 mph 1012.9mb 56f 55f
12:50 4ft 7s 6s 9 11 mph 1013.1mb 56f 55f
dom 05/22 11:50 4.5ft 8s 6s 9 11 mph 1013.2mb 56f 55f
10:50 4ft 8s 6s 13 16 mph 1013.3mb 56f 54f
9:50 4ft 8s 6s 11 13 mph 1013.2mb 56f 55f
8:50 3.5ft 8s 6s 11 13 mph 1013.4mb 56f 54f
7:50 3.5ft 8s 6s 13 16 mph 1013.5mb 56f 53f
6:50 3.5ft 8s 6s 9
mph
1013.6mb 56f 55f
5:50 3ft 8s 6s 7 9 mph 1013.6mb 56f 55f
4:50 3.5ft 8s 6s 9 11 mph 1013.4mb 56f 55f
3:50 3.5ft 8s 6s 11
mph
1013.5mb 56f 55f
2:50 4ft 8s 6s 9 11 mph 1013.4mb 56f 54f
1:50 4ft 8s 6s 9 11 mph 1013.3mb 56f 54f
12:50 4ft 8s 6s 9 11 mph 1013.2mb 56f 54f
11:50 4ft 8s 6s 7 9 mph 1013.5mb 56f 54f
10:50 4.5ft 8s 6s 9 11 mph 1013.5mb 55f 54f
9:50 4.5ft 8s 6s 9
mph
1013.4mb 55f 54f
8:50 4.5ft 8s 6s 9 11 mph 1013.4mb 55f 54f
7:50 4.5ft 8s 6s 11 13 mph 1013mb 55f 54f
6:50 4.5ft 9s 6s 7 9 mph 1013mb 55f 55f
5:50 4.5ft 8s 7s 9 11 mph 1012.7mb 55f 54f
4:50 4.5ft 9s 6s 7 9 mph 1012.5mb 55f 54f
3:50 4.5ft 9s 7s 7
mph
1012.4mb 55f 54f
2:50 4.5ft 8s 6s 9 11 mph 1012.3mb 55f 54f
1:50 4.5ft 8s 6s 7
mph
1012.4mb 55f 54f
12:50 4.5ft 9s 6s 7 9 mph 1012.8mb 55f 55f
sáb 05/21 11:50 5ft 9s 6s 9 13 mph 1013mb 55f 54f
10:50 5ft 9s 6s 9 11 mph 1013mb 55f 54f
9:50 4.5ft 8s 6s 11 13 mph 1012.6mb 55f 55f
8:50 5ft 8s 6s 11 13 mph 1012.2mb 55f 54f
7:50 4.5ft 9s 6s 9
mph
1011.9mb 55f 55f
6:50 5ft 9s 6s 9 11 mph 1011.6mb 55f 55f
5:50 5ft 8s 6s 9
mph
1011.6mb 54f 55f
4:50 5ft 9s 6s 9 11 mph 1011.3mb 55f 55f
3:50 5.5ft 9s 6s 9
mph
1010.9mb 55f 55f
2:50 6ft 10s 7s 9 11 mph 1010.5mb 55f 55f
1:50 5.5ft 10s 6s 11 13 mph 1010.2mb 55f 55f
12:50 6ft 9s 6s 11 13 mph 1009.9mb 55f 55f
11:50 6ft 9s 7s 13 18 mph 1009.7mb 55f 54f
10:50 6.5ft 10s 7s 13 16 mph 1009.4mb 55f 54f
9:50 7ft 10s 7s 13 18 mph 1009mb 54f 54f
8:50 6ft 10s 6s 13 16 mph 1009mb 54f 54f
7:50 6.5ft 10s 7s 13 16 mph 1008.7mb 54f 54f
6:50 6ft 10s 7s 11 16 mph 1008.4mb 53f 54f
5:50 6.5ft 10s 7s 11 13 mph 1008.2mb 53f 54f
4:50 6.5ft 10s 7s 9 11 mph 1008.1mb 53f 54f
3:50 7.5ft 10s 8s 11
mph
1008.5mb 54f 54f
2:50 8ft 10s 8s 9 11 mph 1008.5mb 54f 54f
1:50 8ft 11s 8s 7 9 mph 1008.7mb 54f 54f
12:50 10ft 11s 9s 7 11 mph 1008.7mb 54f 54f
vie 05/20 11:50 9ft 11s 8s 11 16 mph 1008.6mb 54f 54f
10:50 10.5ft 10s 9s 11 13 mph 1009mb 54f 54f
9:50 9ft 10s 8s 11 13 mph 1009.4mb 53f 54f